#Datum;Uhrzeit;WR;Pac;DaySum;Status;WR;Pac;DaySum;Status;Pdc1;Udc;Temp;WR;Pac;DaySum;Status;Pdc1;Udc;Temp;WR;Pac;DaySum;Status;Pdc1;Udc;Temp;WR;Pac;DaySum;Status;Pdc1;Pdc2;Udc1;Udc2;Temp;WR;Pac;DaySum;Status;Pdc1;Pdc2;Udc1;Udc2;Temp;WR;Pac;DaySum;Status;Pdc1;Udc;Temp;WR;Pac;DaySum;Status;Pdc1;Udc;Temp;WR;Pac;DaySum;Status;Pdc1;Udc;Temp
04.03.21;23:55:00;1;318;12478;0;2;0;11283;0;0;0;0;3;0;7151;0;0;0;0;4;0;10003;0;0;0;0;5;0;0;0;0;0;0;0;0;6;0;16607;0;0;0;0;0;0;7;0;13526;0;0;0;0;8;0;13504;0;0;0;0;9;0;7314;0;0;0;0
04.03.21;23:50:00;1;286;12452;0;2;0;11283;0;0;0;0;3;0;7151;0;0;0;0;4;0;10003;0;0;0;0;5;0;0;0;0;0;0;0;0;6;0;16607;0;0;0;0;0;0;7;0;13526;0;0;0;0;8;0;13504;0;0;0;0;9;0;7314;0;0;0;0
04.03.21;23:45:00;1;275;12427;0;2;0;11283;0;0;0;0;3;0;7151;0;0;0;0;4;0;10003;0;0;0;0;5;0;0;0;0;0;0;0;0;6;0;16607;0;0;0;0;0;0;7;0;13526;0;0;0;0;8;0;13504;0;0;0;0;9;0;7314;0;0;0;0
04.03.21;23:40:00;1;276;12404;0;2;0;11283;0;0;0;0;3;0;7151;0;0;0;0;4;0;10003;0;0;0;0;5;0;0;0;0;0;0;0;0;6;0;16607;0;0;0;0;0;0;7;0;13526;0;0;0;0;8;0;13504;0;0;0;0;9;0;7314;0;0;0;0
04.03.21;23:35:00;1;311;12381;0;2;0;11283;0;0;0;0;3;0;7151;0;0;0;0;4;0;10003;0;0;0;0;5;0;0;0;0;0;0;0;0;6;0;16607;0;0;0;0;0;0;7;0;13526;0;0;0;0;8;0;13504;0;0;0;0;9;0;7314;0;0;0;0
04.03.21;23:30:00;1;292;12355;0;2;0;11283;0;0;0;0;3;0;7151;0;0;0;0;4;0;10003;0;0;0;0;5;0;0;0;0;0;0;0;0;6;0;16607;0;0;0;0;0;0;7;0;13526;0;0;0;0;8;0;13504;0;0;0;0;9;0;7314;0;0;0;0
04.03.21;23:25:00;1;1643;12330;0;2;0;11283;0;0;0;0;3;0;7151;0;0;0;0;4;0;10003;0;0;0;0;5;0;0;0;0;0;0;0;0;6;0;16607;0;0;0;0;0;0;7;0;13526;0;0;0;0;8;0;13504;0;0;0;0;9;0;7314;0;0;0;0
04.03.21;23:20:00;1;2171;12209;0;2;0;11283;0;0;0;0;3;0;7151;0;0;0;0;4;0;10003;0;0;0;0;5;0;0;0;0;0;0;0;0;6;0;16607;0;0;0;0;0;0;7;0;13526;0;0;0;0;8;0;13504;0;0;0;0;9;0;7314;0;0;0;0
04.03.21;23:15:00;1;2245;12028;0;2;0;11283;0;0;0;0;3;0;7151;0;0;0;0;4;0;10003;0;0;0;0;5;0;0;0;0;0;0;0;0;6;0;16607;0;0;0;0;0;0;7;0;13526;0;0;0;0;8;0;13504;0;0;0;0;9;0;7314;0;0;0;0
04.03.21;23:10:00;1;2224;11841;0;2;0;11283;0;0;0;0;3;0;7151;0;0;0;0;4;0;10003;0;0;0;0;5;0;0;0;0;0;0;0;0;6;0;16607;0;0;0;0;0;0;7;0;13526;0;0;0;0;8;0;13504;0;0;0;0;9;0;7314;0;0;0;0
04.03.21;23:05:00;1;914;11655;0;2;0;11283;0;0;0;0;3;0;7151;0;0;0;0;4;0;10003;0;0;0;0;5;0;0;0;0;0;0;0;0;6;0;16607;0;0;0;0;0;0;7;0;13526;0;0;0;0;8;0;13504;0;0;0;0;9;0;7314;0;0;0;0
04.03.21;23:00:00;1;379;11578;0;2;0;11283;0;0;0;0;3;0;7151;0;0;0;0;4;0;10003;0;0;0;0;5;0;0;0;0;0;0;0;0;6;0;16607;0;0;0;0;0;0;7;0;13526;0;0;0;0;8;0;13504;0;0;0;0;9;0;7314;0;0;0;0
04.03.21;22:55:00;1;361;11546;0;2;0;11283;0;0;0;0;3;0;7151;0;0;0;0;4;0;10003;0;0;0;0;5;0;0;0;0;0;0;0;0;6;0;16607;2;0;0;0;0;0;7;0;13526;0;0;0;0;8;0;13504;0;0;0;0;9;0;7314;0;0;0;0
04.03.21;22:50:00;1;370;11512;0;2;0;11283;0;0;0;0;3;0;7151;0;0;0;0;4;0;10003;0;0;0;0;5;0;0;0;0;0;0;0;0;6;0;16607;2;0;0;0;0;0;7;0;13526;0;0;0;0;8;0;13504;0;0;0;0;9;0;7314;0;0;0;0
04.03.21;22:45:00;1;347;11481;0;2;0;11283;0;0;0;0;3;0;7151;0;0;0;0;4;0;10003;0;0;0;0;5;0;0;0;0;0;0;0;0;6;0;16607;2;0;0;0;0;0;7;0;13526;0;0;0;0;8;0;13504;0;0;0;0;9;0;7314;0;0;0;0
04.03.21;22:40:00;1;361;11453;0;2;0;11283;0;0;0;0;3;0;7151;0;0;0;0;4;0;10003;0;0;0;0;5;0;0;0;0;0;0;0;0;6;0;16607;2;0;0;0;0;0;7;0;13526;0;0;0;0;8;0;13504;0;0;0;0;9;0;7314;0;0;0;0
04.03.21;22:35:00;1;410;11423;0;2;0;11283;0;0;0;0;3;0;7151;0;0;0;0;4;0;10003;0;0;0;0;5;0;0;0;0;0;0;0;0;6;0;16607;2;0;0;0;0;0;7;0;13526;0;0;0;0;8;0;13504;0;0;0;0;9;0;7314;0;0;0;0
04.03.21;22:30:00;1;419;11388;0;2;0;11283;0;0;0;0;3;0;7151;0;0;0;0;4;0;10003;0;0;0;0;5;0;0;0;0;0;0;0;0;6;0;16607;2;0;0;0;0;0;7;0;13526;0;0;0;0;8;0;13504;0;0;0;0;9;0;7314;0;0;0;0
04.03.21;22:25:00;1;994;11353;0;2;0;11283;0;0;0;0;3;0;7151;0;0;0;0;4;0;10003;0;0;0;0;5;0;0;0;0;0;0;0;0;6;0;16607;2;0;0;0;0;0;7;0;13526;0;0;0;0;8;0;13504;0;0;0;0;9;0;7314;0;0;0;0
04.03.21;22:20:00;1;2291;11277;0;2;0;11283;0;0;0;0;3;0;7151;0;0;0;0;4;0;10003;0;0;0;0;5;0;0;0;0;0;0;0;0;6;0;16607;2;0;0;0;0;0;7;0;13526;0;0;0;0;8;0;13504;0;0;0;0;9;0;7314;0;0;0;0
04.03.21;22:15:00;1;2328;11087;0;2;0;11283;0;0;0;0;3;0;7151;0;0;0;0;4;0;10003;0;0;0;0;5;0;0;0;0;0;0;0;0;6;0;16607;2;0;0;0;0;0;7;0;13526;0;0;0;0;8;0;13504;0;0;0;0;9;0;7314;0;0;0;0
04.03.21;22:10:00;1;2327;10892;0;2;0;11283;0;0;0;0;3;0;7151;0;0;0;0;4;0;10003;0;0;0;0;5;0;0;0;0;0;0;0;0;6;0;16607;2;0;0;0;0;0;7;0;13526;0;0;0;0;8;0;13504;0;0;0;0;9;0;7314;0;0;0;0
04.03.21;22:05:00;1;1006;10699;0;2;0;11283;0;0;0;0;3;0;7151;0;0;0;0;4;0;10003;0;0;0;0;5;0;0;0;0;0;0;0;0;6;0;16607;2;0;0;0;0;0;7;0;13526;0;0;0;0;8;0;13504;0;0;0;0;9;0;7314;0;0;0;0
04.03.21;22:00:00;1;475;10620;0;2;0;11283;0;0;0;0;3;0;7151;0;0;0;0;4;0;10003;0;0;0;0;5;0;0;0;0;0;0;0;0;6;0;16607;2;0;0;0;0;0;7;0;13526;0;0;0;0;8;0;13504;0;0;0;0;9;0;7314;0;0;0;0
04.03.21;21:55:00;1;456;10580;0;2;0;11283;0;0;0;0;3;0;7151;0;0;0;0;4;0;10003;0;0;0;0;5;0;0;0;0;0;0;0;0;6;0;16607;2;0;0;0;0;0;7;0;13526;0;0;0;0;8;0;13504;0;0;0;0;9;0;7314;0;0;0;0
04.03.21;21:50:00;1;443;10539;0;2;0;11283;0;0;0;0;3;0;7151;0;0;0;0;4;0;10003;0;0;0;0;5;0;0;0;0;0;0;0;0;6;0;16607;2;0;0;0;0;0;7;0;13526;0;0;0;0;8;0;13504;0;0;0;0;9;0;7314;0;0;0;0
04.03.21;21:45:00;1;403;10502;0;2;0;11283;0;0;0;0;3;0;7151;0;0;0;0;4;0;10003;0;0;0;0;5;0;0;0;0;0;0;0;0;6;0;16607;2;0;0;0;0;0;7;0;13526;0;0;0;0;8;0;13504;0;0;0;0;9;0;7314;0;0;0;0
04.03.21;21:40:00;1;363;10468;0;2;0;11283;0;0;0;0;3;0;7151;0;0;0;0;4;0;10003;0;0;0;0;5;0;0;0;0;0;0;0;0;6;0;16607;2;0;0;0;0;0;7;0;13526;0;0;0;0;8;0;13504;0;0;0;0;9;0;7314;0;0;0;0
04.03.21;21:35:00;1;421;10438;0;2;0;11283;0;0;0;0;3;0;7151;0;0;0;0;4;0;10003;0;0;0;0;5;0;0;0;0;0;0;0;0;6;0;16607;2;0;0;0;0;0;7;0;13526;0;0;0;0;8;0;13504;0;0;0;0;9;0;7314;0;0;0;0
04.03.21;21:30:00;1;430;10403;0;2;0;11283;0;0;0;0;3;0;7151;0;0;0;0;4;0;10003;0;0;0;0;5;0;0;0;0;0;0;0;0;6;0;16607;2;0;0;0;0;0;7;0;13526;0;0;0;0;8;0;13504;0;0;0;0;9;0;7314;0;0;0;0
04.03.21;21:25:00;1;1246;10367;0;2;0;11283;0;0;0;0;3;0;7151;0;0;0;0;4;0;10003;0;0;0;0;5;0;0;0;0;0;0;0;0;6;0;16607;2;0;0;0;0;0;7;0;13526;0;0;0;0;8;0;13504;0;0;0;0;9;0;7314;0;0;0;0
04.03.21;21:20:00;1;405;10296;0;2;0;11283;0;0;0;0;3;0;7151;0;0;0;0;4;0;10003;0;0;0;0;5;0;0;0;0;0;0;0;0;6;0;16607;2;0;0;0;0;0;7;0;13526;0;0;0;0;8;0;13504;0;0;0;0;9;0;7314;0;0;0;0
04.03.21;21:15:00;1;380;10261;0;2;0;11283;0;0;0;0;3;0;7151;0;0;0;0;4;0;10003;0;0;0;0;5;0;0;0;0;0;0;0;0;6;0;16607;2;0;0;0;0;0;7;0;13526;0;0;0;0;8;0;13504;0;0;0;0;9;0;7314;0;0;0;0
04.03.21;21:10:00;1;433;10229;0;2;0;11283;0;0;0;0;3;0;7151;0;0;0;0;4;0;10003;0;0;0;0;5;0;0;0;0;0;0;0;0;6;0;16607;2;0;0;0;0;0;7;0;13526;0;0;0;0;8;0;13504;0;0;0;0;9;0;7314;0;0;0;0
04.03.21;21:05:00;1;348;10194;0;2;0;11283;0;0;0;0;3;0;7151;0;0;0;0;4;0;10003;0;0;0;0;5;0;0;0;0;0;0;0;0;6;0;16607;2;0;0;0;0;0;7;0;13526;0;0;0;0;8;0;13504;0;0;0;0;9;0;7314;0;0;0;0
04.03.21;21:00:00;1;339;10165;0;2;0;11283;0;0;0;0;3;0;7151;0;0;0;0;4;0;10003;0;0;0;0;5;0;0;0;0;0;0;0;0;6;0;16607;2;0;0;0;0;0;7;0;13526;0;0;0;0;8;0;13504;0;0;0;0;9;0;7314;0;0;0;0
04.03.21;20:55:00;1;343;10137;0;2;0;11283;0;0;0;0;3;0;7151;0;0;0;0;4;0;10003;0;0;0;0;5;0;0;0;0;0;0;0;0;6;0;16607;2;0;0;0;0;0;7;0;13526;0;0;0;0;8;0;13504;0;0;0;0;9;0;7314;0;0;0;0
04.03.21;20:50:00;1;350;10108;0;2;0;11283;0;0;0;0;3;0;7151;0;0;0;0;4;0;10003;0;0;0;0;5;0;0;0;0;0;0;0;0;6;0;16607;2;0;0;0;0;0;7;0;13526;0;0;0;0;8;0;13504;0;0;0;0;9;0;7314;0;0;0;0
04.03.21;20:45:00;1;387;10079;0;2;0;11283;0;0;0;0;3;0;7151;0;0;0;0;4;0;10003;0;0;0;0;5;0;0;0;0;0;0;0;0;6;0;16607;2;0;0;0;0;0;7;0;13526;0;0;0;0;8;0;13504;0;0;0;0;9;0;7314;0;0;0;0
04.03.21;20:40:00;1;497;10047;0;2;0;11283;0;0;0;0;3;0;7151;0;0;0;0;4;0;10003;0;0;0;0;5;0;0;0;0;0;0;0;0;6;0;16607;2;0;0;0;0;0;7;0;13526;0;0;0;0;8;0;13504;0;0;0;0;9;0;7314;0;0;0;0
04.03.21;20:35:00;1;396;10010;0;2;0;11283;0;0;0;0;3;0;7151;0;0;0;0;4;0;10003;0;0;0;0;5;0;0;0;0;0;0;0;0;6;0;16607;2;0;0;0;0;0;7;0;13526;0;0;0;0;8;0;13504;0;0;0;0;9;0;7314;0;0;0;0
04.03.21;20:30:00;1;368;9976;0;2;0;11283;0;0;0;0;3;0;7151;0;0;0;0;4;0;10003;0;0;0;0;5;0;0;0;0;0;0;0;0;6;0;16607;2;0;0;0;0;0;7;0;13526;0;0;0;0;8;0;13504;0;0;0;0;9;0;7314;0;0;0;0
04.03.21;20:25:00;1;360;9945;0;2;0;11283;0;0;0;0;3;0;7151;0;0;0;0;4;0;10003;0;0;0;0;5;0;0;0;0;0;0;0;0;6;0;16607;2;0;0;0;0;0;7;0;13526;0;0;0;0;8;0;13504;0;0;0;0;9;0;7314;0;0;0;0
04.03.21;20:20:00;1;363;9915;0;2;0;11283;0;0;0;0;3;0;7151;0;0;0;0;4;0;10003;0;0;0;0;5;0;0;0;0;0;0;0;0;6;0;16607;2;0;0;0;0;0;7;0;13526;0;0;0;0;8;0;13504;0;0;0;0;9;0;7314;0;0;0;0
04.03.21;20:15:00;1;428;9885;0;2;0;11283;0;0;0;0;3;0;7151;0;0;0;0;4;0;10003;0;0;0;0;5;0;0;0;0;0;0;0;0;6;0;16607;2;0;0;0;0;0;7;0;13526;0;0;0;0;8;0;13504;0;0;0;0;9;0;7314;0;0;0;0
04.03.21;20:10:00;1;442;9849;0;2;0;11283;0;0;0;0;3;0;7151;0;0;0;0;4;0;10003;0;0;0;0;5;0;0;0;0;0;0;0;0;6;0;16607;2;0;0;0;0;0;7;0;13526;0;0;0;0;8;0;13504;0;0;0;0;9;0;7314;0;0;0;0
04.03.21;20:05:00;1;375;9811;0;2;0;11283;0;0;0;0;3;0;7151;0;0;0;0;4;0;10003;0;0;0;0;5;0;0;0;0;0;0;0;0;6;0;16607;2;0;0;0;0;0;7;0;13526;0;0;0;0;8;0;13504;0;0;0;0;9;0;7314;0;0;0;0
04.03.21;20:00:00;1;422;9780;0;2;0;11283;0;0;0;0;3;0;7151;0;0;0;0;4;0;10003;0;0;0;0;5;0;0;0;0;0;0;0;0;6;0;16607;2;0;0;0;0;0;7;0;13526;0;0;0;0;8;0;13504;0;0;0;0;9;0;7314;0;0;0;0
04.03.21;19:55:00;1;460;9745;0;2;0;11283;0;0;0;0;3;0;7151;0;0;0;0;4;0;10003;0;0;0;0;5;0;0;0;0;0;0;0;0;6;0;16607;2;0;0;0;0;0;7;0;13526;0;0;0;0;8;0;13504;0;0;0;0;9;0;7314;0;0;0;0
04.03.21;19:50:00;1;478;9707;0;2;0;11283;0;0;0;0;3;0;7151;0;0;0;0;4;0;10003;0;0;0;0;5;0;0;0;0;0;0;0;0;6;0;16607;2;0;0;0;0;0;7;0;13526;0;0;0;0;8;0;13504;0;0;0;0;9;0;7314;0;0;0;0
04.03.21;19:45:00;1;472;9667;0;2;0;11283;0;0;0;0;3;0;7151;0;0;0;0;4;0;10003;0;0;0;0;5;0;0;0;0;0;0;0;0;6;0;16607;2;0;0;0;0;0;7;0;13526;0;0;0;0;8;0;13504;0;0;0;0;9;0;7314;0;0;0;0
04.03.21;19:40:00;1;482;9628;0;2;0;11283;0;0;0;0;3;0;7151;0;0;0;0;4;0;10003;0;0;0;0;5;0;0;0;0;0;0;0;0;6;0;16607;2;0;0;0;0;0;7;0;13526;0;0;0;0;8;0;13504;0;0;0;0;9;0;7314;0;0;0;0
04.03.21;19:35:00;1;668;9589;0;2;0;11283;0;0;0;0;3;0;7151;0;0;0;0;4;0;10003;0;0;0;0;5;0;0;0;0;0;0;0;0;6;0;16607;0;0;0;0;0;0;7;0;13526;0;0;0;0;8;0;13504;0;0;0;0;9;0;7314;0;0;0;0
04.03.21;19:30:00;1;692;9533;0;2;0;11283;0;0;0;0;3;0;7151;0;0;0;0;4;0;10003;0;0;0;0;5;0;0;0;0;0;0;0;0;6;0;16607;2;0;0;0;0;0;7;0;13526;0;0;0;0;8;0;13504;0;0;0;0;9;0;7314;0;0;0;0
04.03.21;19:25:00;1;633;9475;0;2;0;11283;0;0;0;0;3;0;7151;0;0;0;0;4;0;10003;0;0;0;0;5;0;0;0;0;0;0;0;0;6;0;16607;2;0;0;0;0;0;7;0;13526;0;0;0;0;8;0;13504;0;0;0;0;9;0;7314;0;0;0;0
04.03.21;19:20:00;1;620;9422;0;2;0;11283;0;0;0;0;3;0;7151;0;0;0;0;4;0;10003;0;0;0;0;5;0;0;0;0;0;0;0;0;6;0;16607;2;0;0;0;0;0;7;0;13526;0;0;0;0;8;0;13504;0;0;0;0;9;0;7314;0;0;0;0
04.03.21;19:15:00;1;636;9370;0;2;0;11283;0;0;0;0;3;0;7151;0;0;0;0;4;0;10003;0;0;0;0;5;0;0;0;0;0;0;0;0;6;0;16607;2;0;0;0;0;0;7;0;13526;0;0;0;0;8;0;13504;0;0;0;0;9;0;7314;0;0;0;0
04.03.21;19:10:00;1;798;9317;0;2;0;11283;0;0;0;0;3;0;7151;0;0;0;0;4;0;10003;0;0;0;0;5;0;0;0;0;0;0;0;0;6;0;16607;2;0;0;0;0;0;7;0;13526;0;0;0;0;8;0;13504;0;0;0;0;9;0;7314;0;0;0;0
04.03.21;19:05:00;1;484;9270;0;2;0;11283;0;0;0;0;3;0;7151;0;0;0;0;4;0;10003;0;0;0;0;5;0;0;0;0;0;0;0;0;6;0;16607;2;0;0;0;0;0;7;0;13526;0;0;0;0;8;0;13504;0;0;0;0;9;0;7314;0;0;0;0
04.03.21;19:00:00;1;511;9230;0;2;0;11283;0;0;0;0;3;0;7151;0;0;0;0;4;0;10003;0;0;0;0;5;0;0;0;0;0;0;0;0;6;0;16607;2;0;0;0;0;0;7;0;13526;0;0;0;0;8;0;13504;0;0;0;0;9;0;7314;0;0;0;0
04.03.21;18:55:00;1;752;9187;0;2;0;11283;0;0;0;0;3;0;7151;0;0;0;0;4;0;10003;0;0;0;0;5;0;0;0;0;0;0;0;0;6;0;16607;2;0;0;0;0;0;7;0;13526;0;0;0;0;8;0;13504;0;0;0;0;9;0;7314;0;0;0;0
04.03.21;18:50:00;1;419;9139;0;2;0;11283;0;0;0;0;3;0;7151;0;0;0;0;4;0;10003;0;0;0;0;5;0;0;0;0;0;0;0;0;6;0;16607;2;0;0;0;0;0;7;0;13526;0;0;0;0;8;0;13504;0;0;0;0;9;0;7314;0;0;0;0
04.03.21;18:45:00;1;455;9104;0;2;0;11283;0;0;0;0;3;0;7151;0;0;0;0;4;0;10003;0;0;0;0;5;0;0;0;0;0;0;0;0;6;0;16607;2;0;0;0;0;0;7;0;13526;0;0;0;0;8;0;13504;0;0;0;0;9;0;7314;0;0;0;0
04.03.21;18:40:00;1;352;9065;0;2;0;11283;0;0;0;0;3;0;7151;0;0;0;0;4;0;10003;0;0;0;0;5;0;0;0;0;0;0;0;0;6;0;16607;2;0;0;0;0;0;7;0;13526;0;0;0;0;8;0;13504;0;0;0;0;9;0;7314;0;0;0;0
04.03.21;18:35:00;1;384;9036;0;2;0;11283;0;0;0;0;3;0;7151;0;0;0;0;4;0;10003;0;0;0;0;5;0;0;0;0;0;0;0;0;6;0;16607;2;0;0;0;0;0;7;0;13526;0;0;0;0;8;0;13504;0;0;0;0;9;0;7314;0;0;0;0
04.03.21;18:30:00;1;412;9004;0;2;0;11283;0;0;0;0;3;0;7151;0;0;0;0;4;0;10003;0;0;0;0;5;0;0;0;0;0;0;0;0;6;0;16607;2;0;0;0;0;0;7;0;13526;0;0;0;0;8;0;13504;0;0;0;0;9;0;7314;0;0;0;0
04.03.21;18:25:00;1;385;8970;0;2;0;11283;0;0;0;0;3;0;7151;0;0;0;0;4;0;10003;0;0;0;0;5;0;0;0;0;0;0;0;0;6;0;16607;2;0;0;0;0;0;7;0;13526;0;0;0;0;8;0;13504;0;0;0;0;9;0;7314;0;0;0;0
04.03.21;18:20:00;1;365;8937;0;2;0;11283;0;0;0;0;3;0;7151;0;0;31;2;4;0;10003;0;0;0;0;5;0;0;0;0;0;0;0;0;6;0;16607;2;0;0;0;0;0;7;0;13526;0;0;0;0;8;0;13504;0;0;0;0;9;0;7314;0;0;0;0
04.03.21;18:15:00;1;351;8907;0;2;0;11283;0;0;186;10;3;0;7151;6;0;287;16;4;0;10003;0;0;0;0;5;0;0;0;0;0;0;0;0;6;0;16607;2;0;0;0;0;0;7;0;13526;0;0;0;0;8;0;13504;0;0;0;0;9;0;7314;0;0;0;0
04.03.21;18:10:00;1;381;8877;0;2;0;11283;6;0;305;14;3;0;7151;6;0;360;17;4;0;10003;2;0;82;16;5;0;0;0;0;0;0;0;0;6;0;16607;1;0;0;0;0;0;7;0;13526;0;0;0;0;8;0;13504;0;0;0;0;9;0;7314;0;0;0;0
04.03.21;18:05:00;1;398;8846;0;2;0;11283;6;0;348;14;3;0;7151;6;0;428;17;4;0;10003;1;0;132;17;5;0;0;0;0;0;0;0;0;6;0;16607;2;7;2;176;407;24;7;0;13526;0;0;171;13;8;0;13504;0;0;220;17;9;0;7314;0;0;232;14
04.03.21;18:00:00;1;341;8814;0;2;0;11283;6;0;383;14;3;0;7151;6;3;465;17;4;0;10003;1;0;185;17;5;0;0;0;0;0;0;0;0;6;0;16607;23;6;2;181;544;24;7;0;13526;6;0;374;23;8;0;13504;6;0;252;14;9;0;7314;6;0;406;18
04.03.21;17:55:00;1;305;8784;0;2;0;11283;6;0;390;15;3;1;7151;6;3;471;17;4;0;10003;1;0;209;17;5;0;0;0;0;0;0;0;0;6;0;16607;23;8;1;182;555;25;7;0;13526;6;0;399;23;8;0;13504;6;0;393;23;9;0;7314;6;0;422;18
04.03.21;17:50:00;1;340;8759;0;2;0;11283;6;0;396;15;3;0;7150;6;3;483;18;4;0;10003;1;0;206;18;5;0;0;0;0;0;0;0;0;6;0;16607;23;3;6;447;566;26;7;0;13526;6;1;414;23;8;0;13504;6;1;416;23;9;0;7314;4;0;443;19
04.03.21;17:45:00;1;343;8730;0;2;0;11283;6;0;407;15;3;2;7150;6;4;497;18;4;0;10003;3;0;220;18;5;0;0;0;0;0;0;0;0;6;49;16607;4;20;30;467;443;27;7;0;13526;6;1;439;24;8;0;13504;6;1;442;23;9;2;7314;3;4;458;19
04.03.21;17:40:00;1;271;8702;0;2;28;11283;6;50;380;16;3;0;7150;6;0;539;18;4;4;10003;3;4;199;19;5;0;0;0;0;0;0;0;0;6;85;16602;4;33;42;467;443;27;7;0;13526;6;0;491;24;8;0;13504;6;0;493;23;9;2;7314;6;5;520;19
04.03.21;17:35:00;1;270;8680;0;2;59;11281;4;93;359;16;3;4;7150;4;9;527;18;4;22;10002;3;23;198;19;5;0;0;0;0;0;0;0;0;6;112;16595;4;60;73;467;443;27;7;40;13526;4;75;378;24;8;38;13504;4;74;389;24;9;8;7314;6;16;508;19
04.03.21;17:30:00;1;283;8657;0;2;91;11276;4;123;365;17;3;17;7150;6;29;530;19;4;55;10000;3;57;197;19;5;0;0;0;0;0;0;0;0;6;146;16585;4;71;78;467;443;27;7;68;13523;4;107;412;24;8;67;13500;4;105;424;24;9;6;7313;6;9;546;20
04.03.21;17:25:00;1;294;8634;0;2;150;11269;4;186;371;17;3;82;7149;4;122;481;19;4;106;9996;3;111;212;19;5;0;0;0;0;0;0;0;0;6;210;16573;4;110;122;467;443;27;7;128;13517;4;166;427;24;8;130;13495;4;167;416;24;9;59;7313;6;83;493;20
04.03.21;17:20:00;1;354;8609;0;2;226;11256;4;268;374;17;3;137;7142;4;176;473;19;4;177;9987;5;184;223;20;5;0;0;0;0;0;0;0;0;6;281;16554;4;152;168;467;474;27;7;224;13506;4;260;440;24;8;214;13484;4;256;440;24;9;111;7308;4;145;506;21
04.03.21;17:15:00;1;1271;8579;0;2;271;11238;4;313;383;17;3;163;7130;4;203;487;19;4;209;9973;5;218;225;20;5;0;0;0;0;0;0;0;0;6;328;16531;4;151;180;467;538;27;7;272;13488;4;307;456;25;8;260;13467;4;301;475;24;9;139;7299;4;173;493;21
04.03.21;17:10:00;1;2459;8486;0;2;258;11215;4;299;375;18;3;156;7117;4;198;489;20;4;196;9955;5;204;226;20;5;0;0;0;0;0;0;0;0;6;316;16503;4;151;178;468;540;27;7;257;13466;4;296;437;25;8;254;13445;4;297;452;24;9;129;7287;4;165;512;21
04.03.21;17:05:00;1;2078;8298;0;2;275;11194;4;319;382;18;3;166;7104;4;209;477;20;4;217;9939;5;226;228;20;5;0;0;0;0;0;0;0;0;6;384;16477;4;173;182;560;541;27;7;283;13444;4;323;452;25;8;274;13424;4;316;427;24;9;142;7276;4;178;496;21
04.03.21;17:00:00;1;3345;8110;0;2;388;11170;4;438;390;18;3;237;7090;4;281;505;20;4;318;9920;5;331;230;20;5;0;0;0;0;0;0;0;0;6;536;16443;4;283;295;570;551;27;7;404;13420;4;440;458;25;8;389;13401;4;430;476;24;9;207;7264;4;242;502;21
04.03.21;16:55:00;1;3852;7827;0;2;473;11138;4;521;392;18;3;292;7070;4;339;507;20;4;389;9894;5;406;236;21;5;0;0;0;0;0;0;0;0;6;622;16398;4;317;327;570;555;27;7;486;13387;4;529;462;25;8;479;13368;4;527;461;24;9;250;7247;4;289;507;21
04.03.21;16:50:00;1;963;7506;0;2;475;11098;4;527;394;19;3;295;7045;4;344;505;20;4;394;9862;5;411;233;21;5;0;0;0;0;0;0;0;0;6;625;16345;4;331;337;565;558;27;7;494;13345;4;543;459;25;8;492;13328;4;537;464;24;9;259;7226;4;300;516;21
04.03.21;16:45:00;1;322;7434;0;2;478;11058;4;527;398;19;3;295;7021;4;340;497;21;4;390;9828;5;406;233;21;5;0;0;0;0;0;0;0;0;6;611;16293;4;320;340;569;556;27;7;492;13304;4;541;461;25;8;491;13287;4;537;455;24;9;259;7205;4;298;516;21
04.03.21;16:40:00;1;258;7409;0;2;407;11018;4;456;395;19;3;252;6996;4;297;495;21;4;334;9796;5;348;230;21;5;0;0;0;0;0;0;0;0;6;561;16242;4;283;295;572;556;27;7;430;13263;4;474;466;25;8;430;13246;4;476;471;24;9;229;7183;4;268;511;21
04.03.21;16:35:00;1;277;7387;0;2;397;10984;4;443;388;19;3;242;6975;4;288;504;21;4;327;9768;5;341;229;21;5;0;0;0;0;0;0;0;0;6;583;16196;4;287;291;568;552;27;7;430;13227;4;470;464;25;8;425;13210;4;465;475;24;9;224;7164;4;262;498;22
04.03.21;16:30:00;1;304;7364;0;2;470;10951;4;521;389;19;3;291;6955;4;341;505;21;4;399;9740;5;415;233;22;5;0;0;0;0;0;0;0;0;6;694;16146;4;339;344;582;555;27;7;529;13191;4;572;461;25;8;516;13174;4;568;473;24;9;273;7145;4;314;521;22
04.03.21;16:25:00;1;352;7339;0;2;481;10912;4;532;393;20;3;301;6930;4;348;507;21;4;407;9707;5;424;233;22;5;0;0;0;0;0;0;0;0;6;704;16088;4;360;375;574;552;27;7;544;13147;4;591;466;25;8;538;13131;4;589;464;24;9;280;7122;4;322;524;22
04.03.21;16:20:00;1;315;7310;0;2;502;10872;4;552;397;20;3;312;6905;4;360;497;21;4;422;9673;5;439;232;22;5;0;0;0;0;0;0;0;0;6;725;16029;4;386;393;577;554;27;7;572;13102;4;619;463;25;8;565;13086;4;616;470;24;9;290;7099;4;334;520;22
04.03.21;16:15:00;1;310;7283;0;2;538;10830;4;590;398;20;3;334;6879;4;385;507;22;4;452;9638;5;470;233;22;5;0;0;0;0;0;0;0;0;6;769;15968;4;388;386;577;551;28;7;592;13054;4;637;469;25;8;583;13039;4;642;476;24;9;307;7075;4;352;519;22
04.03.21;16:10:00;1;357;7257;0;2;509;10785;4;560;400;21;3;319;6851;4;368;496;22;4;419;9601;5;436;231;23;5;0;0;0;0;0;0;0;0;6;711;15904;4;354;367;573;554;28;7;558;13004;4;605;463;25;8;558;12990;4;606;461;24;9;294;7049;4;337;516;21
04.03.21;16:05:00;1;267;7228;0;2;438;10742;4;487;391;21;3;272;6824;4;319;496;22;4;360;9565;5;375;230;23;5;0;0;0;0;0;0;0;0;6;622;15845;4;311;317;565;550;28;7;457;12957;4;510;464;24;8;462;12943;4;507;447;24;9;245;7024;4;286;508;21
04.03.21;16:00:00;1;304;7206;0;2;493;10706;4;544;393;22;3;305;6802;4;353;495;22;4;411;9535;5;428;231;23;5;0;0;0;0;0;0;0;0;6;739;15793;4;365;374;578;554;28;7;520;12919;4;567;461;24;8;513;12905;4;560;468;24;9;270;7004;4;311;513;21
04.03.21;15:55:00;1;382;7181;0;2;551;10665;4;603;391;22;3;343;6777;4;394;492;23;4;462;9502;5;481;231;24;5;0;0;0;0;0;0;0;0;6;829;15731;4;445;446;582;557;28;7;594;12877;4;646;469;24;8;601;12863;4;648;472;24;9;314;6982;4;359;517;21
04.03.21;15:50:00;1;335;7149;0;2;616;10619;4;674;392;23;3;386;6748;4;435;488;23;4;519;9463;5;541;232;24;5;0;0;0;0;0;0;0;0;6;930;15662;4;461;462;571;554;28;7;685;12828;4;736;452;24;8;683;12813;4;740;463;24;9;356;6956;4;404;503;22
04.03.21;15:45:00;1;328;7121;0;2;728;10569;4;787;393;24;3;458;6716;4;511;492;23;4;613;9420;5;638;237;25;5;0;0;0;0;0;0;0;0;6;1073;15584;4;554;552;576;557;28;7;828;12771;4;887;454;24;8;828;12757;4;885;464;24;9;435;6926;4;484;512;22
04.03.21;15:40:00;1;315;7093;0;2;1305;10508;4;1385;400;24;3;766;6678;4;836;542;24;4;1073;9369;5;1117;237;25;5;0;0;0;0;0;0;0;0;6;1702;15492;4;856;845;588;565;28;7;1513;12702;4;1592;461;24;8;1488;12688;4;1569;475;24;9;804;6890;4;871;523;23
04.03.21;15:35:00;1;309;7067;0;2;1215;10400;4;1292;398;25;3;769;6614;4;835;513;24;4;996;9280;5;1038;238;25;5;0;0;0;0;0;0;0;0;6;1561;15347;4;818;800;584;569;28;7;1437;12576;4;1513;466;24;8;1435;12564;4;1513;472;24;9;776;6823;4;839;525;23
04.03.21;15:30:00;1;348;7041;0;2;1400;10298;4;1483;400;25;3;843;6550;4;911;503;24;4;1128;9197;5;1175;236;26;5;0;0;0;0;0;0;0;0;6;1710;15217;4;877;858;589;572;28;7;1685;12456;4;1771;473;25;8;1724;12444;4;1817;470;25;9;955;6758;4;1025;528;23
04.03.21;15:25:00;1;354;7014;0;2;1237;10183;4;1317;399;26;3;790;6480;4;853;503;24;4;1017;9103;5;1059;234;26;5;0;0;0;0;0;0;0;0;6;1606;15073;4;834;825;587;565;28;7;1475;12317;4;1560;471;25;8;1465;12303;4;1541;468;25;9;769;6681;4;832;523;23
04.03.21;15:20:00;1;299;6984;0;2;1878;10079;4;1982;401;27;3;1090;6414;4;1168;524;25;4;1528;9018;5;1591;238;26;5;0;0;0;0;0;0;0;0;6;2263;14936;4;1161;1140;583;566;28;7;2040;12194;4;2151;473;25;8;1996;12181;4;2092;476;25;9;1057;6616;4;1133;525;24
04.03.21;15:15:00;1;299;6959;0;2;2593;9929;4;2729;403;26;3;1447;6325;4;1542;534;25;4;2146;8896;5;2235;239;26;5;0;0;0;0;0;0;0;0;6;3074;14743;4;1598;1553;594;579;28;7;3289;12028;4;3456;480;25;8;3340;12018;4;3489;476;25;9;1835;6530;4;1944;525;24
04.03.21;15:10:00;1;298;6934;0;2;1634;9715;4;1728;398;26;3;1044;6206;4;1121;507;25;4;1374;8720;5;1432;236;26;5;0;0;0;0;0;0;0;0;6;2096;14499;4;1092;1065;588;565;28;7;1829;11763;4;1933;471;25;8;1829;11749;4;1920;472;25;9;975;6383;4;1049;526;24
04.03.21;15:05:00;1;340;6909;0;2;2007;9579;4;2117;399;26;3;1260;6119;4;1345;521;25;4;1688;8606;5;1758;239;26;5;0;0;0;0;0;0;0;0;6;2482;14322;4;1289;1256;595;567;28;7;2164;11611;4;2269;470;25;8;2109;11597;4;2214;468;25;9;1124;6302;4;1202;528;24
04.03.21;15:00:00;1;377;6881;0;2;2552;9409;4;2685;413;25;3;1442;6013;4;1534;520;24;4;2215;8462;5;2307;243;25;5;0;0;0;0;0;0;0;0;6;3094;14099;4;1605;1536;595;560;28;7;2985;11427;4;3118;448;25;8;3071;11420;4;3220;470;25;9;1343;6208;4;1427;429;19
04.03.21;14:55:00;1;418;6850;0;2;1663;9195;4;1755;388;25;3;1058;5893;4;1136;511;24;4;1501;8278;5;1563;240;25;5;0;0;0;0;0;0;0;0;6;2173;13846;4;1117;1096;582;569;28;7;1793;11174;4;1898;476;25;8;1745;11165;4;1833;487;25;9;983;6072;4;1055;524;23
04.03.21;14:50:00;1;401;6814;0;2;1206;9051;4;1282;402;24;3;741;5800;4;808;513;24;4;1072;8144;5;1117;238;25;5;0;0;0;0;0;0;0;0;6;1696;13654;4;878;861;585;558;28;7;1660;11020;4;1746;466;25;8;1680;11018;4;1768;473;25;9;911;5989;4;979;521;23
04.03.21;14:45:00;1;400;6781;0;2;896;8938;4;962;396;25;3;570;5733;4;630;511;24;4;755;8040;5;787;230;25;5;0;0;0;0;0;0;0;0;6;1251;13526;4;630;624;580;558;29;7;1005;10855;4;1079;471;25;8;1007;10850;4;1066;459;25;9;534;5898;4;587;517;23
04.03.21;14:40:00;1;318;6748;0;2;1034;8863;4;1102;398;25;3;655;5685;4;718;515;25;4;891;7977;5;927;234;26;5;0;0;0;0;0;0;0;0;6;1502;13420;4;761;757;586;562;29;7;1167;10771;4;1247;469;26;8;1171;10765;4;1238;471;26;9;623;5853;4;683;523;24
04.03.21;14:35:00;1;298;6720;0;2;1183;8778;4;1263;403;26;3;757;5631;4;822;513;25;4;1034;7904;5;1077;236;26;5;0;0;0;0;0;0;0;0;6;1734;13294;4;870;852;586;567;29;7;1386;10677;4;1464;474;26;8;1372;10670;4;1455;475;26;9;736;5803;4;799;521;24
04.03.21;14:30:00;1;329;6695;0;2;1620;8678;4;1713;402;27;3;1046;5567;4;1122;511;26;4;1428;7817;5;1488;238;27;5;0;0;0;0;0;0;0;0;6;2250;13145;4;1143;1117;588;572;29;7;1892;10560;4;1991;474;26;8;1887;10555;4;1985;473;26;9;1022;5741;4;1094;524;25
04.03.21;14:25:00;1;312;6668;0;2;1505;8545;4;1594;400;28;3;967;5481;4;1040;505;26;4;1325;7699;5;1380;239;27;5;0;0;0;0;0;0;0;0;6;2147;12955;4;1072;1051;589;569;29;7;1790;10402;4;1889;471;27;8;1796;10397;4;1892;472;27;9;985;5656;4;1058;519;25
04.03.21;14:20:00;1;305;6641;0;2;1530;8419;4;1621;397;28;3;978;5400;4;1054;508;26;4;1343;7588;5;1398;237;27;5;0;0;0;0;0;0;0;0;6;2205;12777;4;1121;1107;587;571;29;7;1800;10252;4;1890;474;27;8;1788;10247;4;1882;468;27;9;973;5573;4;1045;516;25
04.03.21;14:15:00;1;293;6615;0;2;1727;8292;4;1828;396;29;3;1104;5319;4;1185;508;27;4;1515;7476;5;1578;235;28;5;0;0;0;0;0;0;0;0;6;2481;12593;4;1280;1254;582;565;29;7;2008;10103;4;2104;462;27;8;1986;10098;4;2093;469;27;9;1082;5492;4;1158;516;26
04.03.21;14:10:00;1;290;6591;0;2;2044;8147;4;2159;395;30;3;1306;5226;4;1393;503;27;4;1799;7349;5;1874;233;28;5;0;0;0;0;0;0;0;0;6;2930;12379;4;1491;1459;579;557;29;7;2421;9934;4;2531;456;28;8;2468;9931;4;2592;472;27;9;1319;5401;4;1401;501;26